Weather History for Ardmore Downtown, OK

Change the Weather History Date:

Wednesday, November 28, 2012

  Actual Average (KADM) Record (KADM)
Temperature  
Mean Temperature 56 °F -  
Max Temperature 64 °F 57 °F 78 °F (1998)
Min Temperature 46 °F 39 °F 21 °F (2013)
Degree Days  
Heating Degree Days 9    
Growing Degree Days 6 (Base 50)    
Moisture  
Dew Point 35 °F    
Average Humidity 46    
Maximum Humidity 62    
Minimum Humidity 34    
Precipitation  
Precipitation 0.00 in - - ()
Sea Level Pressure  
Sea Level Pressure 30.28 in    
Wind  
Wind Speed 9 mph (South)    
Max Wind Speed 13 mph    
Max Gust Speed 18 mph    
Visibility 10 miles    
Events      
Averages and records for this station are not official NWS values.
T = Trace of Precipitation, MM = Missing Value Source: NWS Daily Summary

Daily Weather History Graph

Daily Weather History Graph

Search for Another Location

Airport:

Trip Planner

Search our weather history database for the weather conditions in past years. The results will help you decide how hot, cold, wet, or windy it might be!

Date:

Astronomy

Nov. 28, 2012 Rise Set
Actual Time 7:13 AM CST 5:19 PM CST
Civil Twilight 6:46 AM CST 5:46 PM CST
Nautical Twilight 6:15 AM CST 6:17 PM CST
Astronomical Twilight 5:45 AM CST 6:47 PM CST
Moon 5:35 PM CST (11/28) 7:12 AM CST (11/28)
Length of Visible Light 10h 59m
Length of Day
10h 05m
Full, 100% of the Moon is Illuminated
Nov 28
Full
Dec 6
Last Quarter
Dec 13
New
Dec 19
First Quarter
Dec 28
Full

Hourly Weather History & Observations

Time (CST) Temp. Windchill Dew Point Humidity Pressure Visibility Wind Dir Wind Speed Gust Speed Precip Events Conditions
10:35 AM - - - N/A% 30.41 in - South 9.2 mph - N/A   Unknown
10:55 AM 51.8 °F - 37.4 °F 58% 30.40 in 10.0 mi South 10.4 mph - N/A   Clear
11:15 AM 53.6 °F - 37.4 °F 54% 30.39 in 10.0 mi SSE 9.2 mph - N/A   Clear
11:35 AM 55.4 °F - 37.4 °F 51% 30.38 in 10.0 mi SSE 10.4 mph - N/A   Clear
11:55 AM 55.4 °F - 37.4 °F 51% 30.37 in 10.0 mi South 8.1 mph - N/A   Clear
12:15 PM 59.0 °F - 37.4 °F 45% 30.35 in 10.0 mi South 11.5 mph 17.3 mph N/A   Clear
12:35 PM 59.0 °F - 37.4 °F 45% 30.35 in 10.0 mi South 10.4 mph - N/A   Clear
12:55 PM 59.0 °F - 35.6 °F 42% 30.34 in 10.0 mi South 9.2 mph 16.1 mph N/A   Clear
1:15 PM - - - N/A% 30.33 in - SSE 9.2 mph - N/A   Unknown
1:35 PM 60.8 °F - 37.4 °F 42% 30.31 in 10.0 mi SSE 11.5 mph 16.1 mph N/A   Clear
1:55 PM 60.8 °F - 35.6 °F 39% 30.30 in 10.0 mi South 11.5 mph 18.4 mph N/A   Clear
2:15 PM 62.6 °F - 35.6 °F 37% 30.28 in 10.0 mi South 9.2 mph - N/A   Clear
2:35 PM 62.6 °F - 35.6 °F 37% 30.27 in 10.0 mi South 10.4 mph - N/A   Clear
2:55 PM 64.4 °F - 35.6 °F 34% 30.26 in 10.0 mi South 10.4 mph 16.1 mph N/A   Clear
3:15 PM 62.6 °F - 35.6 °F 37% 30.26 in 10.0 mi South 12.7 mph - N/A   Clear
3:35 PM 62.6 °F - 33.8 °F 34% 30.25 in 10.0 mi South 11.5 mph - N/A   Clear
3:55 PM 62.6 °F - 33.8 °F 34% 30.25 in 10.0 mi South 10.4 mph - N/A   Clear
4:15 PM 62.6 °F - 35.6 °F 37% 30.25 in 10.0 mi South 9.2 mph - N/A   Clear
4:35 PM 60.8 °F - 35.6 °F 39% 30.25 in 10.0 mi South 8.1 mph - N/A   Clear
4:55 PM 60.8 °F - 33.8 °F 36% 30.25 in 10.0 mi South 6.9 mph - N/A   Clear
5:15 PM 60.8 °F - 33.8 °F 36% 30.25 in 10.0 mi South 5.8 mph - N/A   Clear
5:35 PM 59.0 °F - 33.8 °F 39% 30.25 in 10.0 mi South 4.6 mph - N/A   Clear
5:55 PM 55.4 °F - 33.8 °F 44% 30.25 in 10.0 mi South 3.5 mph - N/A   Clear
6:35 PM 53.6 °F - 35.6 °F 51% 30.26 in 10.0 mi South 4.6 mph - N/A   Clear
6:55 PM 51.8 °F - 35.6 °F 54% 30.26 in 10.0 mi South 4.6 mph - N/A   Clear
7:35 PM 53.6 °F - 35.6 °F 51% 30.26 in 10.0 mi South 8.1 mph - N/A   Clear
7:55 PM 53.6 °F - 33.8 °F 47% 30.26 in 10.0 mi South 8.1 mph - N/A   Clear
8:15 PM 53.6 °F - 33.8 °F 47% 30.26 in 10.0 mi South 6.9 mph - N/A   Clear
8:35 PM 53.6 °F - 33.8 °F 47% 30.25 in 10.0 mi SSE 6.9 mph - N/A   Clear
8:55 PM 51.8 °F - 33.8 °F 50% 30.25 in 10.0 mi SSE 6.9 mph - N/A   Clear
9:15 PM 51.8 °F - 33.8 °F 50% 30.25 in 10.0 mi SSE 8.1 mph - N/A   Clear
9:35 PM 51.8 °F - 33.8 °F 50% 30.25 in 10.0 mi South 6.9 mph - N/A   Clear
9:55 PM 50.0 °F - 33.8 °F 54% 30.25 in 10.0 mi SSE 6.9 mph - N/A   Clear
10:15 PM 50.0 °F - 33.8 °F 54% 30.25 in 10.0 mi SSE 6.9 mph - N/A   Clear
10:35 PM 50.0 °F - 33.8 °F 54% 30.25 in 10.0 mi SSE 6.9 mph - N/A   Clear
10:55 PM 50.0 °F - 33.8 °F 54% 30.25 in 10.0 mi South 6.9 mph - N/A   Clear
11:15 PM 50.0 °F - 33.8 °F 54% 30.24 in 10.0 mi South 5.8 mph - N/A   Clear
11:35 PM 48.2 °F - 33.8 °F 58% 30.24 in 10.0 mi SSE 5.8 mph - N/A   Clear
11:55 PM 46.4 °F 44.3 °F 33.8 °F 62% 30.24 in 10.0 mi SSE 4.6 mph - N/A   Clear